#timestamp,LO_Frequency,Hit,StdDev 
1702551615.4,286047001.2,N
1702551635.2,286046998.1,N
1702551655.0,286046998.5,N
1702551655.9,286046998.5,N
1702551675.8,286046998.7,N
1702551695.6,286046998.8,N
1702551715.5,286046997.3,N
1702551735.3,286046997.8,N
1702551755.1,286046997.9,N
1702551775.9,286046997.4,N
1702551795.7,286046996.6,N
1702551815.5,286046999.3,N
1702551835.4,286046998.9,N
1702551855.2,286047001.0,N
1702551875.1,286046998.6,N
1702551876.0,286046998.6,N
1702551895.8,286046998.4,N
1702551915.6,286046999.1,N
1702551935.5,286046998.4,N
1702551955.3,286046998.2,N
1702551975.2,286046998.6,N
1702551995.9,286046998.8,N
1702552015.7,286047000.0,N
1702552035.6,286047000.8,N
1702552055.4,286046998.2,N
1702552075.3,286047002.8,N
1702552095.1,286047000.3,N
1702552115.8,286047000.7,N
1702552135.7,286047000.7,N
1702552155.5,286047000.7,N
1702552175.4,286046998.6,N
1702552195.2,286046998.6,N
1702552215.0,286046996.8,N
1702552215.9,286046996.8,N
1702552235.8,286046999.4,N
1702552255.6,286046997.3,N
1702552275.5,286046996.8,N
1702552295.3,286046997.2,N
1702552315.1,286046999.2,N
1702552335.9,286046997.3,N
1702552355.7,286046996.8,N
1702552375.5,286046999.5,N
1702552395.4,286046996.7,N
1702552415.2,286046999.5,N
1702552435.1,286046997.4,N
1702552436.0,286046997.4,N
1702552455.8,286046996.8,N
1702552475.6,286046998.9,N
1702552495.5,286046996.9,N
1702552515.3,286047001.1,N
1702552535.1,286046999.3,N
1702552555.9,286046998.7,N
1702552575.7,286046998.8,N
1702552595.6,286046999.5,N
1702552615.4,286046997.0,N
1702552635.2,286046997.3,N
1702552655.1,286046997.2,N
1702552656.0,286046997.2,N
1702552675.8,286046995.4,Y
1702552695.6,286046998.1,P
1702552715.5,286046998.2,P
1702552735.3,286046998.3,P
1702552755.2,286047000.6,Y
1702552775.0,286047002.3,P
1702552775.9,286047002.3,N
1702552795.7,286047002.8,N
1702552815.6,286046999.8,N
1702552835.4,286047002.5,N
1702552855.3,286047003.7,N
1702552875.1,286047003.5,N
1702552876.0,286047003.5,N
1702552895.8,286047003.4,N
1702552915.7,286047003.9,N
1702552935.5,286047001.3,N
1702552955.3,286047004.0,N
1702552975.2,286047001.5,N
1702552995.0,286047002.8,N
1702552995.9,286047002.8,N
1702553015.8,286047001.2,N
1702553035.6,286047000.2,N
1702553055.4,286046999.7,N
1702553075.3,286047002.1,N
1702553095.1,286047004.3,N
1702553115.9,286047005.5,Y
1702553135.7,286047002.0,P
1702553155.5,286047002.4,P
1702553175.4,286046999.9,N
1702553195.2,286047000.1,N
1702553215.1,286046999.8,N
1702553216.0,286046999.8,N
1702553235.8,286047002.7,N
1702553255.6,286047000.1,N
1702553275.5,286046998.1,N
1702553295.3,286046999.8,N
1702553315.1,286046999.7,N
1702553335.9,286047000.4,N
1702553355.7,286046999.4,N
1702553375.6,286046996.6,N
1702553395.4,286046999.3,N
1702553415.2,286047001.0,N
1702553435.1,286047000.9,N
1702553436.0,286047000.9,N
1702553455.8,286046998.9,N
1702553475.6,286046999.4,N
1702553495.5,286046996.5,N
1702553515.3,286046999.1,N
1702553535.2,286046998.5,N
1702553555.9,286047001.2,N
1702553575.7,286046998.6,N
1702553595.6,286046998.3,N
1702553615.4,286046999.4,N
1702553635.2,286046998.4,N
1702553655.1,286046997.0,N
1702553656.0,286046997.0,N
1702553675.8,286046996.7,N
1702553695.8,286046999.2,N
1702553715.7,286046999.6,N
1702553735.5,286046998.7,N
1702553755.3,286046999.0,N
1702553775.2,286046998.2,N
1702553795.0,286046996.5,N
1702553795.9,286046996.5,N
1702553815.8,286046997.0,N
1702553835.6,286046999.3,N
1702553855.5,286046998.4,N
1702553875.3,286046996.7,N
1702553895.1,286046997.6,N
1702553915.9,286046996.6,N
1702553935.7,286046999.5,N
1702553955.6,286046998.9,N
1702553975.4,286046997.1,N
1702553995.2,286046996.9,N
1702554015.1,286046997.1,N
1702554016.0,286046997.1,N
1702554035.8,286046997.8,N
1702554055.7,286046995.6,Y
1702554075.5,286046996.6,P
1702554095.3,286046998.2,N
1702554115.2,286047002.7,P
1702554135.0,286047000.1,N
1702554135.9,286047000.1,N
1702554155.8,286047002.2,N
1702554175.6,286047000.2,N
1702554195.4,286047000.2,N
1702554215.3,286047000.1,N
1702554235.1,286047002.8,N
1702554255.9,286047000.9,N
1702554275.7,286047000.5,N
1702554295.5,286047000.9,N
1702554315.4,286047002.4,N
1702554335.2,286047002.7,N
1702554355.0,286047000.0,N
1702554356.0,286047000.0,N
1702554375.8,286047000.8,N
1702554395.6,286046998.3,N
1702554415.5,286047002.8,N
1702554435.3,286047000.2,N
1702554455.1,286047000.5,N
1702554475.9,286047000.3,N
1702554495.7,286047002.1,N
1702554515.6,286047002.6,N
1702554535.4,286047002.7,N
1702554555.2,286047001.3,N
1702554575.1,286047003.8,N
1702554595.8,286047004.1,N
1702554615.7,286047003.8,N
1702554635.5,286047002.0,N
1702554655.4,286047002.2,N
1702554675.2,286047002.8,N
1702554695.0,286047001.5,N
1702554695.9,286047001.5,N
1702554715.8,286047001.3,N
1702554735.6,286047004.1,Y
1702554755.4,286047001.3,P
1702554775.3,286047000.1,N
1702554795.1,286047000.9,N
1702554815.9,286047002.6,Y
1702554835.7,286047000.8,P
1702554855.5,286046998.7,P
1702554875.4,286046999.2,N
1702554895.2,286046999.2,N
1702554915.0,286046998.3,N
1702554916.0,286046998.3,N
1702554935.8,286046999.3,N
1702554955.6,286046998.5,N
1702554975.5,286046999.4,N
1702554995.3,286046999.4,N
1702555015.1,286047001.1,N
1702555035.9,286046998.1,N
1702555055.7,286047001.1,N
1702555075.6,286046998.5,N
1702555095.4,286047000.3,N
1702555115.2,286046999.7,N
1702555135.1,286047000.7,N
1702555136.0,286047000.7,N
1702555155.8,286047000.7,N
1702555175.6,286046998.8,N
1702555195.5,286046998.9,N
